| time (UTC) | temp F | wind direction | speed knots | gust knots | rain 1hr in | rain 24hr in | rain mn in | humidity % | barometer mb |
| 20260902184723 | 65 | 74 | 1.7 | 4.3 | 0.00 | 0.00 | 0.00 | 83 | 1022.4 |
| 20260902183224 | 66 | 65 | 3.5 | 3.5 | 0.00 | 0.00 | 0.00 | 81 | 1022.0 |
| 20260902181726 | 66 | 71 | 0.9 | 3.5 | 0.00 | 0.00 | 0.00 | 81 | 1022.0 |
| 20260902180215 | 68 | 64 | 0.0 | 0.0 | 0.00 | 0.00 | 0.00 | 79 | 1022.0 |
| 20260902174720 | 70 | 161 | 0.0 | 0.0 | 0.00 | 0.00 | 0.00 | 77 | 1021.9 |
| 20260902173212 | 72 | 288 | 0.0 | 0.9 | 0.00 | 0.00 | 0.00 | 72 | 1021.7 |
| 20260902171719 | 72 | 288 | 0.0 | 2.6 | 0.00 | 0.00 | 0.00 | 72 | 1021.7 |
| 20260902170219 | 73 | 338 | 1.7 | 4.3 | 0.00 | 0.00 | 0.00 | 69 | 1021.7 |
| 20260902164731 | 74 | 333 | 0.0 | 3.5 | 0.00 | 0.00 | 0.00 | 68 | 1021.6 |
| 20260902163223 | 74 | 194 | 0.9 | 4.3 | 0.00 | 0.00 | 0.00 | 67 | 1021.6 |
| 20260902161718 | 75 | 150 | 2.6 | 6.1 | 0.00 | 0.00 | 0.00 | 65 | 1021.6 |
| 20260902160227 | 76 | 169 | 1.7 | 7.8 | 0.00 | 0.00 | 0.00 | 63 | 1021.8 |
| 20260902154719 | 76 | 174 | 2.6 | 6.1 | 0.00 | 0.00 | 0.00 | 63 | 1021.6 |
| 20260902153217 | 76 | 277 | 1.7 | 7.0 | 0.00 | 0.00 | 0.00 | 63 | 1021.6 |
| 20260902151723 | 77 | 221 | 2.6 | 7.0 | 0.00 | 0.00 | 0.00 | 62 | 1021.6 |
| 20260902150218 | 77 | 159 | 3.5 | 6.1 | 0.00 | 0.00 | 0.00 | 62 | 1021.9 |
| 20260902144731 | 76 | 180 | 3.5 | 7.8 | 0.00 | 0.00 | 0.00 | 63 | 1022.0 |
| 20260902143223 | 76 | 171 | 2.6 | 6.1 | 0.00 | 0.00 | 0.00 | 65 | 1022.0 |
| 20260902141722 | 76 | 163 | 1.7 | 4.3 | 0.00 | 0.00 | 0.00 | 66 | 1022.2 |
| 20260902140225 | 75 | 172 | 1.7 | 6.1 | 0.00 | 0.00 | 0.00 | 67 | 1022.4 |
| 20260902134721 | 75 | 163 | 2.6 | 7.0 | 0.00 | 0.00 | 0.00 | 66 | 1022.4 |
| 20260902133229 | 76 | 213 | 1.7 | 4.3 | 0.00 | 0.00 | 0.00 | 66 | 1022.6 |
| 20260902131714 | 75 | 167 | 1.7 | 6.1 | 0.00 | 0.00 | 0.00 | 65 | 1022.7 |
| 20260902130219 | 74 | 130 | 1.7 | 7.0 | 0.00 | 0.00 | 0.00 | 69 | 1022.9 |
| 20260902124719 | 74 | 164 | 2.6 | 7.0 | 0.00 | 0.00 | 0.00 | 68 | 1023.0 |
| 20260902123219 | 74 | 146 | 1.7 | 6.1 | 0.00 | 0.00 | 0.00 | 68 | 1023.2 |
| 20260902121722 | 74 | 210 | 2.6 | 9.6 | 0.00 | 0.00 | 0.00 | 67 | 1023.2 |
| 20260902120226 | 73 | 221 | 1.7 | 7.0 | 0.00 | 0.00 | 0.00 | 68 | 1023.3 |
| 20260902114721 | 74 | 185 | 1.7 | 10.4 | 0.00 | 0.00 | 0.00 | 67 | 1023.2 |
| 20260902113225 | 74 | 230 | 4.3 | 7.8 | 0.00 | 0.00 | 0.00 | 67 | 1023.4 |
| 20260902111723 | 73 | 152 | 2.6 | 7.0 | 0.00 | 0.00 | 0.00 | 69 | 1023.4 |
| 20260902110216 | 74 | 190 | 3.5 | 8.7 | 0.00 | 0.00 | 0.00 | 67 | 1023.4 |
| 20260902104721 | 74 | 210 | 1.7 | 6.1 | 0.00 | 0.00 | 0.00 | 68 | 1023.6 |
| 20260902103225 | 74 | 217 | 3.5 | 8.7 | 0.00 | 0.00 | 0.00 | 68 | 1023.9 |
| 20260902101728 | 74 | 219 | 4.3 | 7.8 | 0.00 | 0.00 | 0.00 | 68 | 1023.9 |
| 20260902100221 | 73 | 194 | 2.6 | 6.1 | 0.00 | 0.00 | 0.00 | 71 | 1024.1 |
| 20260902094731 | 72 | 168 | 2.6 | 5.2 | 0.00 | 0.00 | 0.00 | 73 | 1024.0 |
| 20260902093213 | 71 | 279 | 1.7 | 4.3 | 0.00 | 0.00 | 0.00 | 76 | 1024.1 |
| 20260902091727 | 71 | 240 | 1.7 | 3.5 | 0.00 | 0.00 | 0.00 | 76 | 1024.0 |
| 20260902090216 | 69 | 190 | 0.9 | 3.5 | 0.00 | 0.00 | 0.00 | 79 | 1024.1 |
| 20260902084729 | 68 | 265 | 1.7 | 3.5 | 0.00 | 0.00 | 0.00 | 78 | 1024.2 |
| 20260902083224 | 68 | 241 | 0.9 | 2.6 | 0.00 | 0.00 | 0.00 | 80 | 1024.1 |
| 20260902081732 | 67 | 269 | 0.0 | 0.0 | 0.00 | 0.00 | 0.00 | 84 | 1023.9 |
| 20260902080228 | 67 | 267 | 0.9 | 3.5 | 0.00 | 0.00 | 0.00 | 83 | 1023.8 |
| 20260902074717 | 66 | 281 | 1.7 | 3.5 | 0.00 | 0.00 | 0.00 | 83 | 1023.8 |
| 20260902073218 | 65 | 199 | 0.0 | 0.0 | 0.00 | 0.00 | 0.00 | 87 | 1023.8 |
| 20260902071723 | 64 | 121 | 0.0 | 0.0 | 0.00 | 0.00 | 0.00 | 91 | 1023.6 |
| 20260902070228 | 62 | 112 | 0.0 | 0.0 | 0.00 | 0.00 | 0.00 | 91 | 1023.5 |
| 20260902064725 | 62 | 81 | 0.0 | 0.0 | 0.00 | 0.00 | 0.00 | 91 | 1023.5 |
| 20260902063231 | 62 | 61 | 0.0 | 0.9 | 0.00 | 0.00 | 0.00 | 91 | 1023.5 |
| 20260902061727 | 62 | 56 | 1.7 | 2.6 | 0.00 | 0.00 | 0.00 | 91 | 1023.4 |
| 20260902060215 | 62 | 61 | 1.7 | 2.6 | 0.00 | 0.00 | 0.00 | 91 | 1023.5 |
| 20260902054715 | 61 | 68 | 1.7 | 2.6 | 0.00 | 0.00 | 0.00 | 93 | 1023.5 |
| 20260902053228 | 61 | 83 | 1.7 | 2.6 | 0.00 | 0.00 | 0.00 | 93 | 1023.2 |
| 20260902051723 | 61 | 74 | 1.7 | 2.6 | 0.00 | 0.00 | 0.00 | 93 | 1023.1 |
| 20260902050218 | 61 | 80 | 0.9 | 1.7 | 0.00 | 0.00 | 0.00 | 93 | 1023.2 |
| 20260902044720 | 61 | 101 | 0.9 | 2.6 | 0.00 | 0.00 | 0.00 | 93 | 1023.1 |
| 20260902043219 | 61 | 81 | 0.0 | 1.7 | 0.00 | 0.00 | 0.00 | 92 | 1023.0 |
| 20260902041712 | 61 | 84 | 0.9 | 3.5 | 0.00 | 0.00 | 0.00 | 92 | 1022.9 |
| 20260902040229 | 61 | 83 | 1.7 | 2.6 | 0.00 | 0.00 | 0.00 | 91 | 1022.8 |
| 20260902034717 | 61 | 111 | 1.7 | 3.5 | 0.00 | 0.00 | 0.00 | 90 | 1023.0 |
| 20260902033213 | 61 | 82 | 1.7 | 2.6 | 0.00 | 0.00 | 0.00 | 90 | 1023.0 |
| 20260902031731 | 61 | 69 | 1.7 | 2.6 | 0.00 | 0.00 | 0.00 | 90 | 1023.0 |
| 20260902030219 | 62 | 72 | 1.7 | 3.5 | 0.00 | 0.00 | 0.00 | 89 | 1023.0 |
| 20260902024722 | 62 | 34 | 1.7 | 5.2 | 0.00 | 0.00 | 0.00 | 90 | 1023.1 |
| 20260902023221 | 62 | 52 | 1.7 | 5.2 | 0.00 | 0.00 | 0.00 | 90 | 1023.0 |
| 20260902021717 | 62 | 57 | 2.6 | 3.5 | 0.00 | 0.00 | 0.00 | 90 | 1023.0 |
| 20260902020226 | 62 | 84 | 0.9 | 3.5 | 0.00 | 0.00 | 0.00 | 89 | 1023.0 |
| 20260902014725 | 62 | 78 | 1.7 | 4.3 | 0.00 | 0.00 | 0.00 | 88 | 1023.0 |
| 20260902013231 | 62 | 61 | 2.6 | 5.2 | 0.00 | 0.00 | 0.00 | 89 | 1023.1 |
| 20260902011718 | 61 | 74 | 1.7 | 2.6 | 0.00 | 0.00 | 0.00 | 91 | 1023.1 |
| 20260902010216 | 61 | 91 | 0.9 | 3.5 | 0.00 | 0.00 | 0.00 | 91 | 1023.2 |
| 20260902004716 | 61 | 88 | 1.7 | 2.6 | 0.00 | 0.00 | 0.00 | 91 | 1023.2 |
| 20260902003224 | 62 | 76 | 0.9 | 3.5 | 0.00 | 0.00 | 0.00 | 90 | 1023.2 |
| 20260902001720 | 62 | 77 | 1.7 | 2.6 | 0.00 | 0.00 | 0.00 | 89 | 1023.2 |
| 20260901234718 | 62 | 69 | 1.7 | 3.5 | 0.00 | 0.00 | 0.00 | 90 | 1023.3 |
| 20260901233216 | 62 | 80 | 0.9 | 1.7 | 0.00 | 0.00 | 0.00 | 90 | 1023.3 |
| 20260901231726 | 62 | 67 | 2.6 | 2.6 | 0.00 | 0.00 | 0.00 | 90 | 1023.2 |
| 20260901230223 | 62 | 70 | 1.7 | 2.6 | 0.00 | 0.00 | 0.00 | 89 | 1023.2 |
| 20260901224728 | 62 | 87 | 1.7 | 2.6 | 0.00 | 0.00 | 0.00 | 89 | 1023.3 |
| 20260901223216 | 63 | 67 | 1.7 | 2.6 | 0.00 | 0.00 | 0.00 | 88 | 1023.2 |
| 20260901221729 | 63 | 109 | 1.7 | 2.6 | 0.00 | 0.00 | 0.00 | 88 | 1023.4 |
| 20260901220214 | 63 | 65 | 0.9 | 1.7 | 0.00 | 0.00 | 0.00 | 88 | 1023.6 |
| 20260901214728 | 64 | 101 | 0.0 | 0.0 | 0.00 | 0.00 | 0.00 | 86 | 1023.6 |
| 20260901213218 | 64 | 113 | 1.7 | 2.6 | 0.00 | 0.00 | 0.00 | 85 | 1023.4 |
| 20260901211721 | 64 | 67 | 1.7 | 3.5 | 0.00 | 0.00 | 0.00 | 84 | 1023.4 |
| 20260901210220 | 64 | 60 | 1.7 | 3.5 | 0.00 | 0.00 | 0.00 | 84 | 1023.4 |
| 20260901204720 | 64 | 80 | 1.7 | 3.5 | 0.00 | 0.00 | 0.00 | 85 | 1023.5 |
| 20260901203215 | 64 | 65 | 1.7 | 3.5 | 0.00 | 0.00 | 0.00 | 84 | 1023.4 |
| 20260901201716 | 64 | 77 | 1.7 | 4.3 | 0.00 | 0.00 | 0.00 | 84 | 1023.5 |
| 20260901200217 | 64 | 54 | 3.5 | 7.0 | 0.00 | 0.00 | 0.00 | 83 | 1023.4 |
| 20260901194718 | 64 | 69 | 2.6 | 4.3 | 0.00 | 0.00 | 0.00 | 83 | 1023.4 |
| 20260901193220 | 64 | 72 | 2.6 | 4.3 | 0.00 | 0.00 | 0.00 | 83 | 1023.2 |
| 20260901191713 | 65 | 64 | 4.3 | 5.2 | 0.00 | 0.00 | 0.00 | 82 | 1023.1 |
| 20260901190227 | 65 | 71 | 2.6 | 4.3 | 0.00 | 0.00 | 0.00 | 83 | 1023.0 |